[[{"header":{"parameterUnit":"m.s-1","parameterCategory":1,"la1":30.2991,"la2":30.254,"lo1":-89.0895,"lo2":-89.0444,"dy":0.0017,"dx":0.0017,"nx":28,"ny":28,"refTime":"2024-07-09T21:00:00:Z","depth":0,"parameterNumber":2,"parameterNumberName":"U-component_of_WINDS"},"data":[0,0,0,0,0,0,0,0,0,0,0,0,0,0,0,0,0,0,0,0,0,0,0,0,0,0,0,0,0,0,0,0,0,0,0,0,0,0,0,0,0,0,0,0,0,0,0,0,0,0,0,0,0,0,0,0,0,0,2.1759,2.176,0,2.1797,2.1797,2.1798,2.1756,2.1754,2.1753,2.1751,2.1794,2.1797,2.1799,0,0,0,0,0,0,0,0,0,0,0,0,0,2.1655,2.1657,2.1759,2.176,2.176,2.1797,2.1797,2.1798,2.1756,2.1754,2.1752,2.175,2.1793,2.1796,2.18,0,0,0,0,0,0,0,0,0,0,0,0,0,2.1697,2.1658,2.1759,2.1744,2.1743,2.1797,2.1797,2.1798,2.1756,2.1754,2.1752,2.1749,2.1792,2.1796,2.18,2.1873,0,0,2.1812,2.1814,0,0,0,0,0,0,0,0,2.1695,2.1701,2.1745,2.1745,2.1744,2.1769,2.1776,2.1823,2.1757,2.1751,2.1751,2.1748,2.1788,2.1792,2.1805,2.1875,2.1877,2.1813,2.1815,2.1817,2.1818,0,0,0,0,0,0,0,2.1692,2.1699,2.1774,2.1746,2.1745,2.1736,2.1739,2.1785,2.1783,2.1752,2.1749,2.1753,2.1787,2.1801,2.1805,2.1877,2.1812,2.1816,2.1818,2.182,2.2009,2.2011,0,0,0,0,0,0,2.169,2.1697,2.1773,2.1775,2.1713,2.174,2.1744,2.1764,2.1782,2.1783,2.1755,2.1751,2.1795,2.1801,2.1807,2.1892,2.1817,2.182,2.1823,2.2006,2.2009,2.2012,0,0,0,0,0,0,2.1688,2.1698,2.1772,2.1736,2.1744,2.1744,2.1767,2.1766,2.1779,2.1785,2.1785,2.177,2.1794,2.1801,2.1856,2.1893,2.1822,2.1826,2.2003,2.2007,2.2011,2.2065,0,0,0,0,0,0,2.1686,2.1697,2.1724,2.1736,2.1746,2.1819,2.1769,2.1768,2.1786,2.1781,2.1798,2.1799,2.1792,2.1851,2.186,2.1898,2.1829,2.1999,2.2005,2.2009,2.206,2.207,2.2079,0,0,0,0,0,2.1682,2.1739,2.1725,2.1735,2.178,2.1822,2.1827,2.1817,2.1789,2.1816,2.182,2.1799,2.1888,2.1857,2.1867,2.1906,2.1997,2.2003,2.2009,2.2055,2.2068,2.2079,0,0,0,0,0,0,2.1732,2.174,2.1725,2.1788,2.1804,2.1814,2.1848,2.1831,2.1857,2.1851,2.1839,2.1844,2.1902,2.191,2.1875,2.1977,2.1938,2.1946,2.197,2.1982,2.1991,2.1988,2.1832,0,0,0,0,0,2.175,2.1783,2.1788,2.1843,2.1852,2.1849,2.1867,2.1857,2.1874,2.1882,2.1889,2.1908,2.194,2.1962,2.1992,2.2061,2.2064,2.2093,2.2103,2.2111,2.2118,2.2155,2.2167,2.2031,2.2031,2.2031,0,0,2.1789,2.1797,2.1818,2.1853,2.1865,2.1899,2.1855,2.1894,2.1919,2.1888,2.1939,2.1946,2.1966,2.2028,2.2056,2.2037,2.2156,2.2118,2.2125,2.2128,2.2162,2.2175,2.2186,2.2035,2.2035,2.2034,0,0,2.1875,2.1885,2.1931,2.1943,2.1961,2.1958,2.1969,2.1982,2.1985,2.2036,2.2013,2.2044,2.21,2.2115,2.213,2.2222,2.2203,2.2233,2.2283,2.2319,2.233,2.2339,2.2371,2.2383,2.224,2.224,2.224,0,2.1921,2.1971,2.1957,2.1997,2.2013,2.1985,2.2032,2.2045,2.2072,2.2084,2.2062,2.213,2.2142,2.2207,2.2229,2.2243,2.2255,2.223,2.2329,2.2338,2.2347,2.2378,2.239,2.2243,2.2243,2.2243,2.2242,0,2.2026,2.2061,2.2096,2.2121,2.2141,2.2185,2.2179,2.2201,2.219,2.219,2.2243,2.2256,2.2288,2.2303,2.2293,2.2366,2.2354,2.233,2.229,2.2363,2.2392,2.2404,2.2248,2.2247,2.2246,2.2245,0,0,2.2145,2.2161,2.2174,2.2185,2.2202,2.223,2.2272,2.2301,2.2321,2.2341,2.2376,2.2423,2.2402,2.2419,2.2411,2.2442,2.2514,2.2415,2.2415,2.2432,2.2595,2.2611,2.2625,2.2502,2.2504,2.2506,2.2593,0,2.2231,2.2303,2.2292,2.2361,2.2394,2.2367,2.2404,2.2419,2.2421,2.2449,2.2452,2.2485,2.2454,2.2464,2.2494,2.2499,2.2546,2.2492,2.2535,2.2537,2.253,2.264,2.2658,2.274,2.2604,2.2606,2.2607,0,2.2342,2.2363,2.2436,2.2447,2.246,2.2493,2.2519,2.2546,2.2563,2.2562,2.2581,2.2567,2.261,2.257,2.263,2.2593,2.261,2.2615,2.2618,2.2621,2.2576,2.2646,2.2766,2.2778,2.2625,2.2624,2.2622,0,2.242,2.2468,2.2517,2.2527,2.2542,2.2566,2.2574,2.2588,2.2606,2.2629,2.2641,2.267,2.2685,2.2709,2.2703,2.2674,2.2764,2.2723,2.2765,2.2765,2.2784,2.2783,2.2908,2.2797,2.2797,2.2796,2.2796,0,2.2517,2.2562,2.2552,2.2583,2.2633,2.262,2.2671,2.2675,2.2688,2.2719,2.2699,2.2729,2.2721,2.2751,2.2747,2.2797,2.2805,2.2805,2.2804,2.2807,2.2806,2.2817,2.2811,2.28,2.2799,2.2798,2.2798,0,2.2613,2.2609,2.266,2.267,2.2673,2.2709,2.2718,2.2747,2.2747,2.2786,2.2795,2.2796,2.283,2.2827,2.2866,2.2863,2.2925,2.2917,2.2918,2.2916,2.2958,2.2954,2.3093,2.3111,2.2989,2.299,2.2991,0,2.2675,2.2709,2.2721,2.274,2.2749,2.278,2.2797,2.2787,2.2807,2.2829,2.2855,2.2887,2.2912,2.2968,2.2973,2.3003,2.2995,2.3042,2.2999,2.3001,2.2995,2.2992,2.2996,2.305,2.3052,2.3053,2.3054,0,2.2785,2.2781,2.2807,2.2832,2.2853,2.2873,2.2891,2.2908,2.29,2.2923,2.2957,2.2976,2.3015,2.3047,2.3076,2.3085,2.3068,2.3067,2.3078,2.3081,2.308,2.308,2.294,2.3064,2.3063,2.3062,2.3061,2.3061,2.2865,2.2894,2.2906,2.2936,2.2948,2.2965,2.2992,2.2995,2.3023,2.3052,2.3045,2.3083,2.31,2.3135,2.3147,2.3178,2.3161,2.3177,2.3181,2.3185,2.3189,2.3076,2.3183,2.3183,2.3183,2.3182,2.3182,0,2.2973,2.298,2.3007,2.3032,2.3055,2.3036,2.3055,2.3076,2.311,2.3126,2.315,2.3189,2.322,2.3227,2.3257,2.328,2.3273,2.3288,2.3286,2.3288,2.3203,2.319,2.3293,2.3293,2.3293,2.3293,2.3293,2.3293,2.3032,2.3079,2.3076,2.3129,2.3136,2.3172,2.3184,2.32,2.3212,2.3256,2.3281,2.3285,2.3298,2.3328,2.3356,2.3357,2.3369,2.3387,2.3385,2.3306,2.3294,2.3284,2.3271,2.339,2.339,2.3468,2.3469,2.3469]},{"header":{"parameterUnit":"m.s-1","parameterCategory":1,"la1":30.2991,"la2":30.254,"lo1":-89.0895,"lo2":-89.0444,"dy":0.0017,"dx":0.0017,"nx":28,"ny":28,"refTime":"2024-07-09T21:00:00:Z","depth":0,"parameterNumber":3,"parameterNumberName":"V-component_of_WINDS"},"data":[0,0,0,0,0,0,0,0,0,0,0,0,0,0,0,0,0,0,0,0,0,0,0,0,0,0,0,0,0,0,0,0,0,0,0,0,0,0,0,0,0,0,0,0,0,0,0,0,0,0,0,0,0,0,0,0,0,0,2.0239,2.0238,0,2.0176,2.0175,2.0174,2.016,2.0161,2.0161,2.0162,2.0091,2.0089,2.0087,0,0,0,0,0,0,0,0,0,0,0,0,0,2.0342,2.034,2.0239,2.0238,2.0237,2.0176,2.0175,2.0174,2.016,2.0161,2.0161,2.0162,2.0092,2.0089,2.0086,0,0,0,0,0,0,0,0,0,0,0,0,0,2.029,2.0339,2.0239,2.0223,2.0221,2.0176,2.0175,2.0174,2.016,2.0161,2.0162,2.0162,2.0093,2.0089,2.0086,2.0051,0,0,2.0075,2.0074,0,0,0,0,0,0,0,0,2.0293,2.0286,2.0226,2.0224,2.0222,2.0177,2.0185,2.0132,2.016,2.0183,2.0162,2.0163,2.0119,2.0113,2.01,2.0047,2.0044,2.0075,2.0073,2.0072,2.0071,0,0,0,0,0,0,0,2.0296,2.0288,2.0214,2.0225,2.0223,2.0217,2.0211,2.0175,2.0147,2.0181,2.018,2.0173,2.0118,2.0103,2.0098,2.0043,2.0075,2.0072,2.007,2.0069,1.9958,1.9958,0,0,0,0,0,0,2.0303,2.0291,2.0216,2.0212,2.026,2.0215,2.0208,2.019,2.0148,2.0142,2.0172,2.0173,2.0109,2.0102,2.0095,2.0051,2.0072,2.0068,2.0066,1.9959,1.9958,1.9957,0,0,0,0,0,0,2.0306,2.0297,2.0218,2.0251,2.0241,2.0212,2.0193,2.0189,2.0174,2.0142,2.0136,2.0163,2.0109,2.01,2.0062,2.0048,2.0067,2.0064,1.996,1.9959,1.9958,1.9962,0,0,0,0,0,0,2.0309,2.0298,2.0285,2.0251,2.0239,2.0188,2.0192,2.0187,2.0169,2.0169,2.0131,2.0126,2.0109,2.0068,2.0059,2.0044,2.0061,1.9961,1.996,1.9958,1.9963,1.9961,1.9959,0,0,0,0,0,2.0312,2.0287,2.0285,2.0275,2.0223,2.0187,2.018,2.0163,2.0168,2.0154,2.0133,2.0127,2.0052,2.0064,2.0054,2.0037,1.9962,1.996,1.9958,1.9964,1.9961,1.9959,0,0,0,0,0,0,2.0318,2.0283,2.0279,2.0243,2.0218,2.0185,2.0167,2.0161,2.0133,2.0133,2.0112,2.0103,2.0066,2.0048,2.0063,2.0001,2.0007,2.0003,2.0014,2.0012,2.001,2.0015,2.0058,0,0,0,0,0,2.0316,2.0291,2.0261,2.0231,2.022,2.0196,2.0179,2.0168,2.0141,2.013,2.0106,2.0079,2.0049,2.0029,2.0,1.996,1.9951,1.9944,1.9943,1.9941,1.9938,1.9915,1.9911,1.9951,1.9951,1.9951,0,0,2.0309,2.0287,2.0272,2.0232,2.0212,2.0185,2.0187,2.0158,2.0138,2.0125,2.0088,2.007,2.0037,1.9999,1.998,1.9982,1.9925,1.9939,1.9938,1.9935,1.9913,1.9909,1.9906,1.995,1.995,1.995,0,0,2.0284,2.0265,2.0239,2.0219,2.0189,2.0174,2.0167,2.0135,2.0123,2.0086,2.0076,2.0051,2.0,1.9977,1.9959,1.9926,1.9919,1.9917,1.9907,1.9885,1.9882,1.9879,1.9867,1.9863,1.9914,1.9914,1.9914,0,2.0279,2.024,2.0225,2.0198,2.018,2.017,2.0142,2.0123,2.0084,2.0071,2.0075,2.0011,1.9988,1.9944,1.9937,1.9922,1.9913,1.9921,1.9884,1.9881,1.9878,1.9866,1.9862,1.9914,1.9914,1.9914,1.9914,0,2.0236,2.0209,2.0191,2.0156,2.0137,2.0109,2.0088,2.007,2.0061,2.0045,2.0007,1.998,1.9945,1.9934,1.9924,1.9888,1.989,1.9889,1.9894,1.9875,1.9863,1.9858,1.9914,1.9914,1.9914,1.9914,0,0,2.0211,2.017,2.0163,2.0148,2.0114,2.0092,2.0064,2.0032,2.0016,1.999,1.9965,1.9922,1.9922,1.9901,1.9889,1.987,1.9845,1.9871,1.987,1.9867,1.9803,1.9803,1.9798,1.984,1.984,1.9839,1.9805,0,2.0181,2.0132,2.0118,2.0076,2.0051,2.0041,2.0017,1.9993,1.9977,1.9951,1.9933,1.9903,1.9905,1.9892,1.9873,1.9852,1.9832,1.9854,1.9815,1.9814,1.9823,1.9792,1.9792,1.9762,1.9801,1.98,1.9799,0,2.0139,2.0115,2.0071,2.0042,2.0031,2.0009,1.9979,1.9955,1.9927,1.9917,1.9895,1.9884,1.9853,1.9861,1.9816,1.9832,1.9815,1.9802,1.98,1.9795,1.9805,1.9785,1.9752,1.9747,1.9792,1.9793,1.9793,0,2.0125,2.0081,2.0049,2.0036,2.0001,1.9986,1.997,1.9944,1.9925,1.9898,1.9886,1.9855,1.9837,1.9813,1.9793,1.9801,1.975,1.9757,1.9739,1.974,1.9728,1.9729,1.969,1.9718,1.9718,1.9719,1.9719,0,2.0093,2.0066,2.0042,2.0023,1.9992,1.9976,1.9946,1.9929,1.9906,1.9882,1.9871,1.9848,1.9824,1.9798,1.9782,1.9747,1.9739,1.9729,1.9725,1.9729,1.9731,1.9717,1.9718,1.9717,1.9718,1.9718,1.9718,0,2.0071,2.0054,2.0019,1.999,1.9982,1.9961,1.9934,1.9914,1.9899,1.9868,1.9859,1.9834,1.9802,1.9781,1.974,1.9729,1.9691,1.9688,1.9701,1.9699,1.9683,1.9684,1.9634,1.9626,1.966,1.966,1.9659,0,2.0051,2.0031,2.0,1.9984,1.9969,1.9943,1.9925,1.9908,1.989,1.9857,1.984,1.9809,1.9782,1.9731,1.9708,1.9676,1.9672,1.9656,1.9666,1.9672,1.967,1.9672,1.9669,1.9654,1.9654,1.9654,1.9653,0,2.0017,2.001,1.9986,1.9959,1.9938,1.9915,1.9892,1.9879,1.9858,1.9837,1.9806,1.9786,1.9745,1.9713,1.9679,1.9661,1.9653,1.9651,1.9645,1.9649,1.9657,1.9652,1.9696,1.9651,1.9652,1.9652,1.9652,1.9652,1.9995,1.9977,1.9953,1.9926,1.9907,1.9886,1.9866,1.9849,1.9823,1.979,1.9781,1.9748,1.972,1.9675,1.9656,1.9629,1.963,1.9622,1.962,1.9618,1.9617,1.9663,1.9623,1.9623,1.9623,1.9623,1.9623,0,1.996,1.9945,1.992,1.989,1.9868,1.9866,1.984,1.9822,1.9794,1.977,1.9745,1.9708,1.9678,1.9652,1.962,1.9603,1.9599,1.9595,1.9595,1.9591,1.9618,1.9626,1.9599,1.9599,1.9599,1.9599,1.9599,1.9599,1.9939,1.9908,1.9899,1.9858,1.9842,1.9811,1.9797,1.9777,1.9758,1.9719,1.9694,1.9679,1.9654,1.962,1.9591,1.9584,1.9572,1.9569,1.9561,1.9587,1.9589,1.9592,1.9599,1.9567,1.9567,1.9537,1.9536,1.9536]}]]